Regional Weather Roundup
Issued by NWS

Home | Current Version | Previous Version | Graphics & Text | Print | Product List | Glossary On
Versions: 1 2 3 4 5 6 7 8 9 10 11 12 13 14 15 16 17 18 19 20 21 22 23 24 25 26 27 28 29 30 31 32 33 34 35 36 37 38 39 40 41 42 43 44 45 46 47 48 49 50
000
ASUS43 KLOT 281908
RWRIL

ILLINOIS REGIONAL WEATHER ROUNDUP
NATIONAL WEATHER SERVICE CHICAGO/ROMEOVILLE IL
200 PM CDT THU MAY 28 2015

NOTE: "FAIR" INDICATES FEW OR NO CLOUDS BELOW 12,000 FEET WITH NO
SIGNIFICANT WEATHER AND/OR OBSTRUCTIONS TO VISIBILITY.

* THESE STATIONS ARE NOT UNDER NWS QUALITY CONTROL. THEY ALSO MAY NOT
  REPORT WEATHER SUCH AS PRECIPITATION OR FOG.

ILZ001-002-007-009-015-016-024-282000-
NORTHWEST ILLINOIS

CITY           SKY/WX    TMP DP  RH WIND       PRES   REMARKS
MOLINE         MOSUNNY   83  54  36 SE12G21   30.12F HX  82
STERLING*      SUNNY     82  55  39 SE9G20    30.14F HX  82
SAVANNA*       MOSUNNY   83  47  29 S12G21    30.14S HX  81
$$

ILZ003-004-008-010-011-017-018-282000-
NORTH CENTRAL ILLINOIS

CITY           SKY/WX    TMP DP  RH WIND       PRES   REMARKS
ROCKFORD       PTSUNNY   82  55  39 S14G24    30.17S HX  81
FREEPORT*      SUNNY     79  55  43 S14G20    30.17F
ROCHELLE*      MOSUNNY   81  56  41 S10G17    30.16F HX  81
DE KALB*       MOSUNNY   78  55  46 SE13G22   30.18S
$$

ILZ005-006-012>014-019>023-282000-
NORTHEAST ILLINOIS

CITY           SKY/WX    TMP DP  RH WIND       PRES   REMARKS
CHICAGO-OHARE  MOSUNNY   82  56  40 E13G20    30.16F HX  82
CHICAGO-MIDWAY PTSUNNY   83  58  42 E15G21    30.16F HX  83
AURORA         MOSUNNY   82  56  40 SE16      30.17F HX  82
LANSING*       SUNNY     81  54  40 SE12      30.16F HX  80
JOLIET*        MOSUNNY   83  55  38 SE8G16    30.16S HX  82
WAUKEGAN       PTSUNNY   72  56  57 SE14      30.18F
DUPAGE AIRPORT MOSUNNY   81  55  40 S10       30.16F HX  81
KANKAKEE*      SUNNY     82  53  36 SE14      30.16F HX  81
WHEELING       MOSUNNY   80  52  37 SE10      30.18F HX  80
MORRIS*        SUNNY     82  54  36 SE12G21   30.15F HX  81
ROMEOVILLE*    SUNNY     82  53  36 SE9       30.16F HX  81
NORTHERLY ISL    N/A     66  56  70 E3          N/A
$$

LMZ740>746-282000-
SOUTHERN LAKE MICHIGAN

STATION/POSITION SKY/WX   TEMP    WIND        PRES    VSBY  WAVE
                          AIR SEA DIR/SP/G                  HT/PER
                          (F)     (DEG/KT/KT) (MB)    (MI)  (FT/S)
SOUTHERN BUOY              49 39  150/  8/  8 1022.9F         0
HARRISON CRIB              69     110/ 10/ 11   N/A
BURNHAM HARBOR             67      20/  3/  6   N/A
CALUMET HARBOR             65      50/  8/ 11   N/A
BURNS HARBOR               67      60/  5/ 10 1022.7F
MICHIGAN CITY              77      70/  9/ 13   N/A
MICHIGAN CITY 6N           62 57   30/  6/  8   N/A           0
ST. JOSEPH                 63 59   20/  8/  8   N/A           0
$$

ILZ025>027-034>036-040-047-049-050-058-095>099-282000-
WEST-CENTRAL ILLINOIS

CITY           SKY/WX    TMP DP  RH WIND       PRES   REMARKS
QUINCY         MOSUNNY   79  60  52 SE10G20   30.10F HX  80
GALESBURG*     PTSUNNY   77  53  43 SE9       30.14F
MACOMB*        PTSUNNY   80  55  41 SE13G18   30.16F HX  80
JACKSONVILLE*  MOSUNNY   84  59  42 S12       30.12F HX  84
PITTSFIELD*    MOSUNNY   81  63  53 SE8       30.12F HX  82
$$

ILZ028>032-037-038-041>044-048-051>054-059>061-282000-
CENTRAL ILLINOIS

CITY           SKY/WX    TMP DP  RH WIND       PRES   REMARKS
PONTIAC        MOSUNNY   85  53  33 SE13G22   30.16F HX  83
BLOOMINGTON    MOSUNNY   83  52  34 SE14      30.16F HX  82
DECATUR        MOSUNNY   83  57  41 SE9G21    30.14F HX  82
PEORIA         PTSUNNY   84  52  33 SE16G22   30.15S HX  82
LACON*         MOSUNNY   82  54  38 S10       30.13F HX  81
LINCOLN*       PTSUNNY   84  54  36 SE9G17    30.12F HX  82
SPRINGFIELD    PTSUNNY   85  58  39 S13G18    30.14F HX  84
TAYLORVILLE    MOSUNNY   81  59  47 SE3       30.13F HX  81
$$

ILZ033-039-045-046-055>057-062-063-282000-
EAST-CENTRAL ILLINOIS

CITY           SKY/WX    TMP DP  RH WIND       PRES   REMARKS
CHAMPAIGN      MOSUNNY   85  48  27 SE13G21   30.15F HX  82
DANVILLE*      SUNNY     82  51  33 SE8       30.14S HX  80
RANTOUL*       SUNNY     85  46  25 SE9G16    30.16F HX  82
PARIS*         MOSUNNY   85  54  34 SW8G16    30.16F HX  83
$$

ILZ079-100>102-282000-
SOUTHWEST ILLINOIS

CITY           SKY/WX    TMP DP  RH WIND       PRES   REMARKS
ALTON          PTSUNNY   82  72  69 S9        30.12F HX  87
BELLEVILLE     MOSUNNY   83  69  62 VRB6      30.10F HX  87
CAHOKIA*       PTSUNNY   84  66  54 S10       30.11F HX  86
SPARTA*        MOSUNNY   80  68  66 S9        30.14F HX  82
$$

ILZ064>066-069>071-074>076-080>082-084>086-088>090-092>094-282000-
SOUTH-CENTRAL ILLINOIS

CITY           SKY/WX    TMP DP  RH WIND       PRES   REMARKS
CARBONDALE     MOSUNNY   82  65  56 S9        30.14F HX  84
CAIRO*         MOSUNNY   82  67  61 SW9       30.15F HX  84
EFFINGHAM*     PTSUNNY   84  61  46 E6        30.15F HX  84
MARION         PTSUNNY   82  68  61 MISG      30.15F HX  85
MT. VERNON     MOSUNNY   84  68  58 S7        30.15F HX  87
CENTRALIA*     MOSUNNY   84  63  49 S9        30.14F HX  85
SALEM*         MOSUNNY   85  65  51 SW9       30.14F HX  87
METROPOLIS*    MOSUNNY   83  65  54 SE7       30.14F HX  85
$$

ILZ067-068-072-073-078-083-087-091-282000-
SOUTHEAST ILLINOIS

CITY           SKY/WX    TMP DP  RH WIND       PRES   REMARKS
LAWRENCEVILLE  MOSUNNY   86  63  45 SE10      30.14F HX  87
FLORA*         MOSUNNY   81  63  54 S5        30.14F HX  82
FAIRFIELD*     CLOUDY    82  66  58 SE9       30.13F HX  84
HARRISBURG*    MOSUNNY   82  66  58 S8        30.16F HX  84
ROBINSON*      PTSUNNY   85  62  45 E8        30.15F HX  85
CARMI*         MOSUNNY   84  57  39 SE10      30.14F HX  83
$$

ABBREVIATIONS USED IN REMARKS
   TC - TEMPERATURE IN CELSIUS
  WCI - WIND CHILL INDEX
   HX - HEAT INDEX
  VSB - VISIBILITY
$$




USA.gov is the U.S. government's official web portal to all federal, state and local government web resources and services.